Mountain Home, AR

8:27 AM CST on December 17, 2017 (GMT -0600)
Baxter County Regional

Weather History for KBPK - October, 2013

Change the Weather History Date:

Monday, October 21, 2013

  Actual Average (KFLP) Record (KFLP)
Temperature  
Mean Temperature 52 °F -  
Max Temperature 61 °F 69 °F 84 °F (2003)
Min Temperature 44 °F 46 °F 30 °F (2011)
Degree Days  
Heating Degree Days 12    
Growing Degree Days 2 (Base 50)    
Moisture  
Dew Point 45 °F    
Average Humidity 83    
Maximum Humidity 94    
Minimum Humidity 57    
Precipitation  
Precipitation 0.16 in - - ()
Sea Level Pressure  
Sea Level Pressure 30.03 in    
Wind  
Wind Speed 1 mph (SW)    
Max Wind Speed 7 mph    
Max Gust Speed -    
Visibility 8 miles    
Events Rain    
Averages and records for this station are not official NWS values.
T = Trace of Precipitation, MM = Missing Value Source: NWS Daily Summary

Daily Weather History Graph

Daily Weather History Graph

Search for Another Location

Airport or City:

Trip Planner

Search our weather history database for the weather conditions in past years. The results will help you decide how hot, cold, wet, or windy it might be!

Date:

Astronomy

Oct. 21, 2013 Rise Set
Actual Time 7:22 AM CDT 6:25 PM CDT
Civil Twilight 6:56 AM CDT 6:51 PM CDT
Nautical Twilight 6:26 AM CDT 7:21 PM CDT
Astronomical Twilight 5:56 AM CDT 7:51 PM CDT
Moon 8:22 PM CDT (10/21) 9:54 AM CDT (10/21)
Length of Visible Light 11h 55m
Length of Day
11h 02m
Waning Gibbous, 92% of the Moon is Illuminated
Oct 21
Waning Gibbous
Oct 26
Last Quarter
Nov 3
New
Nov 9
First Quarter
Nov 17
Full

Hourly Weather History & Observations

Time (CDT) Temp. Dew Point Humidity Pressure Visibility Wind Dir Wind Speed Gust Speed Precip Events Conditions
12:53 AM 51.1 °F 42.1 °F 71% 29.96 in 10.0 mi South 3.5 mph - N/A   Mostly Cloudy
1:53 AM 48.9 °F 43.0 °F 80% 29.96 in 10.0 mi Calm Calm - N/A   Mostly Cloudy
2:53 AM 46.9 °F 42.1 °F 83% 29.97 in 10.0 mi Calm Calm - N/A   Scattered Clouds
3:53 AM 48.9 °F 44.1 °F 83% 29.97 in 10.0 mi Calm Calm - N/A   Overcast
4:53 AM 48.9 °F 44.1 °F 83% 29.97 in 10.0 mi Calm Calm - N/A   Overcast
5:53 AM 52.0 °F 44.1 °F 74% 29.98 in 10.0 mi SW 3.5 mph - N/A   Overcast
6:53 AM 51.1 °F 44.1 °F 77% 29.99 in 10.0 mi Calm Calm - N/A   Overcast
7:53 AM 52.0 °F 45.0 °F 77% 30.01 in 10.0 mi Calm Calm - N/A   Overcast
8:53 AM 54.0 °F 46.9 °F 77% 30.02 in 10.0 mi Calm Calm - N/A   Mostly Cloudy
9:53 AM 55.9 °F 46.9 °F 72% 30.02 in 10.0 mi Calm Calm - N/A   Scattered Clouds
10:53 AM 60.1 °F 45.0 °F 57% 30.03 in 10.0 mi Variable 6.9 mph - N/A   Overcast
11:53 AM 57.9 °F 46.9 °F 67% 30.04 in 10.0 mi Calm Calm - N/A   Overcast
12:53 PM 57.0 °F 46.0 °F 67% 30.05 in 10.0 mi Calm Calm - 0.00 in Rain Light Rain
1:53 PM 54.0 °F 48.9 °F 83% 30.05 in 9.0 mi NW 3.5 mph - 0.00 in Rain Light Rain
2:53 PM 52.0 °F 48.0 °F 86% 30.05 in 7.0 mi Calm Calm - 0.02 in Rain Light Rain
3:53 PM 52.0 °F 50.0 °F 93% 30.04 in 3.0 mi Calm Calm - 0.04 in Rain Rain
4:17 PM 51.8 °F 50.0 °F 94% 30.05 in 6.0 mi Variable 3.5 mph - 0.03 in Rain Light Rain
4:30 PM 51.8 °F 48.2 °F 88% 30.05 in 6.0 mi Calm Calm - 0.03 in Rain Light Rain
4:53 PM 51.1 °F 48.0 °F 89% 30.05 in 5.0 mi Calm Calm - 0.05 in Rain Light Rain
5:53 PM 50.0 °F 46.9 °F 89% 30.05 in 4.0 mi Calm Calm - 0.04 in Rain Light Rain
6:53 PM 48.9 °F 46.9 °F 93% 30.06 in 9.0 mi Calm Calm - 0.00 in   Overcast
7:53 PM 48.0 °F 46.0 °F 93% 30.07 in 9.0 mi Calm Calm - 0.00 in   Partly Cloudy
8:45 PM 46.4 °F 44.6 °F 93% 30.06 in 1.8 mi Calm Calm - N/A   Clear
8:53 PM 46.0 °F 44.1 °F 93% 30.06 in 1.8 mi Calm Calm - N/A   Clear
8:56 PM 46.4 °F 44.6 °F 93% 30.06 in 3.0 mi Calm Calm - N/A   Clear
9:53 PM 46.0 °F 44.1 °F 93% 30.07 in 9.0 mi Calm Calm - N/A   Clear
10:53 PM 45.0 °F 42.1 °F 90% 30.08 in 10.0 mi Calm Calm - 0.01 in   Clear
11:53 PM 44.1 °F 41.0 °F 89% 30.08 in 8.0 mi Calm Calm - N/A   Clear